#timestamp,LO_Frequency,Hit,StdDev 
1643716815.2,286047000.5,N
1643716835.1,286047000.5,N
1643716836.0,286047000.5,N
1643716855.8,286047001.2,N
1643716875.7,286046999.9,N
1643716895.5,286046999.8,N
1643716915.3,286047000.8,N
1643716935.2,286047000.8,N
1643716955.0,286046998.8,N
1643716955.9,286046998.8,N
1643716975.7,286046998.3,N
1643716995.6,286047000.6,N
1643717015.4,286047001.1,N
1643717035.3,286047000.0,N
1643717055.1,286047000.5,N
1643717056.0,286047000.5,N
1643717075.8,286047000.9,N
1643717095.7,286046999.9,N
1643717115.5,286047002.3,N
1643717135.3,286047002.8,N
1643717155.2,286047000.0,N
1643717175.0,286046999.7,N
1643717175.9,286046999.7,N
1643717195.8,286047002.4,N
1643717215.6,286047000.6,N
1643717235.4,286047000.9,N
1643717255.3,286046998.7,N
1643717275.1,286047001.2,N
1643717295.9,286047001.0,N
1643717315.7,286047000.2,N
1643717335.5,286047000.0,N
1643717355.4,286046999.7,N
1643717375.2,286047002.7,N
1643717395.0,286047002.8,N
1643717395.9,286047002.8,N
1643717415.8,286047000.9,N
1643717435.6,286046999.9,N
1643717455.5,286047002.4,N
1643717475.3,286047001.5,N
1643717495.1,286047003.8,Y
1643717515.9,286047002.5,P
1643717535.7,286047002.7,P
1643717555.5,286047001.9,N
1643717575.4,286047000.1,N
1643717595.2,286047000.2,N
1643717615.1,286047000.2,N
1643717616.0,286047000.2,N
1643717635.8,286047002.2,N
1643717655.6,286046999.8,N
1643717675.5,286047000.6,N
1643717695.3,286047000.9,N
1643717715.1,286047000.8,N
1643717735.9,286047000.4,N
1643717755.7,286047000.5,N
1643717775.6,286047000.6,N
1643717795.4,286047000.8,N
1643717815.2,286046998.6,N
1643717835.1,286046999.0,N
1643717836.0,286046999.0,N
1643717855.8,286047000.9,N
1643717875.6,286046998.8,N
1643717895.5,286046999.4,N
1643717915.3,286047000.5,N
1643717935.2,286047002.7,N
1643717955.9,286047000.7,N
1643717975.7,286047001.2,N
1643717995.6,286046998.3,N
1643718015.4,286046998.5,N
1643718035.2,286047000.7,N
1643718055.1,286047000.1,N
1643718056.0,286047000.1,N
1643718075.8,286047000.1,N
1643718095.7,286047000.4,N
1643718115.5,286047000.8,N
1643718135.3,286046999.9,N
1643718155.2,286046998.5,N
1643718175.0,286046998.7,N
1643718175.9,286046998.7,N
1643718195.8,286046996.9,Y
1643718215.6,286046996.5,P
1643718235.4,286046998.9,N
1643718255.3,286046999.2,N
1643718275.1,286046999.6,N
1643718295.8,286046999.3,N
1643718315.7,286046998.8,N
1643718335.5,286047000.5,N
1643718355.4,286047000.9,N
1643718375.2,286046998.9,N
1643718395.0,286046998.1,N
1643718395.9,286046998.1,N
1643718415.8,286047000.5,N
1643718435.6,286046998.1,N
1643718455.4,286046999.1,N
1643718475.3,286047001.2,N
1643718495.1,286047000.7,N
1643718515.9,286047000.6,N
1643718535.7,286047001.0,N
1643718555.5,286047002.4,N
1643718575.4,286047002.8,N
1643718595.2,286046999.9,N
1643718615.0,286047000.9,N
1643718615.9,286047000.9,N
1643718635.8,286047000.3,N
1643718655.6,286047000.9,N
1643718675.5,286046999.9,N
1643718695.3,286047002.7,N
1643718715.1,286047001.5,N
1643718735.9,286047002.0,N
1643718755.7,286047002.1,N
1643718775.5,286047002.8,N
1643718795.4,286047000.1,N
1643718815.2,286047001.9,N
1643718835.1,286047002.7,N
1643718836.0,286047002.7,N
1643718855.8,286047002.8,N
1643718875.6,286047000.6,N
1643718895.5,286047001.0,N
1643718915.3,286047000.5,N
1643718935.1,286047001.0,N
1643718955.9,286047000.6,N
1643718975.7,286046998.5,N
1643718995.6,286047000.0,N
1643719015.4,286047000.9,N
1643719035.2,286047000.1,N
1643719055.1,286047000.4,N
1643719056.0,286047000.4,N
1643719075.8,286046998.6,N
1643719095.6,286047001.2,N
1643719115.5,286047000.9,N
1643719135.3,286047000.5,N
1643719155.2,286047000.9,N
1643719175.9,286047000.0,N
1643719195.7,286047000.1,N
1643719215.6,286047000.1,N
1643719235.4,286047002.4,N
1643719255.3,286046998.7,N
1643719275.1,286046998.3,N
1643719276.0,286046998.3,N
1643719295.8,286046999.6,N
1643719315.7,286046999.0,N
1643719335.5,286046996.5,N
1643719355.4,286046999.3,N
1643719375.2,286046996.8,N
1643719395.0,286046999.4,N
1643719395.9,286046999.4,N
1643719415.8,286046999.1,N
1643719435.6,286046998.9,N
1643719455.4,286046999.6,N
1643719475.3,286046997.4,N
1643719495.1,286046996.5,N
1643719515.9,286046999.4,N
1643719535.7,286046998.3,N
1643719555.5,286046998.9,N
1643719575.4,286046999.4,N
1643719595.2,286046999.6,N
1643719615.0,286046996.9,N
1643719615.9,286046996.9,N
1643719635.8,286046999.5,N
1643719655.6,286046998.8,N
1643719675.5,286046997.1,N
1643719695.3,286046997.8,N
1643719715.1,286046996.8,N
1643719735.9,286046998.0,N
1643719755.7,286046997.7,N
1643719775.5,286046996.8,N
1643719795.4,286046999.5,N
1643719815.2,286046999.2,N
1643719835.1,286046997.3,N
1643719836.0,286046997.3,N
1643719855.8,286046996.9,N
1643719875.6,286046997.1,N
1643719895.5,286046997.3,N
1643719915.3,286046996.6,Y
1643719935.2,286047001.2,P
1643719955.9,286047000.8,N
1643719975.7,286046998.5,N
1643719995.6,286046998.5,N
1643720015.4,286046998.3,N
1643720035.2,286046999.2,N
1643720055.1,286046998.7,N
1643720056.0,286046998.7,N
1643720075.8,286046998.6,N
1643720095.7,286046999.4,N
1643720115.5,286046999.6,N
1643720135.3,286046999.3,N
1643720155.2,286047000.8,N
1643720175.0,286047000.8,N
1643720175.9,286047000.8,N
1643720195.7,286046998.2,N
1643720215.6,286046998.2,N
1643720235.4,286046998.4,N
1643720255.3,286046997.0,N
1643720275.1,286046999.1,N
1643720276.0,286046999.1,N
1643720295.8,286046996.7,Y
1643720315.7,286047001.2,P
1643720335.5,286046998.8,N
1643720355.3,286046996.6,P
1643720375.2,286046997.0,N
1643720395.0,286046996.8,N
1643720395.9,286046996.8,N
